sat.trackr.live / text

‹ back to catalog

STARLINK-2431

NORAD 47839 · 2021-018BE

PAYLOAD ACTIVE UNKNOWN

§ Identity

Operator
Country
US
Launch date
2021-03-11
Launch site
AFETR
Launch vehicle
Mass (kg)
RCS (m²)

Purposes: comms

External: N2YO · Heavens-Above · Gunter

§ Orbital elements

Epoch: 2026-05-24T13:50:42.001728Z

Period
94.01 min
Inclination
53.1596°
Eccentricity
0.0001142
Mean motion
15.31719136 rev/d
Perigee alt
469.9 km
Apogee alt
471.5 km
Semi-major
6,848.8 km
B*
9.2685e-5
RAAN
224.0140°
Arg perigee
90.0240°
Mean anomaly
270.0892°
Rev number
28,872

§ Raw data

STARLINK-24311 47839U 21018BE  26144.57687502  .00002514  00000+0  92685-4 0  99952 47839  53.1596 224.0140 0001142  90.0240 270.0892 15.31719136288720

JSON: /api/v1/satellites/47839 · /tle

For live sub-satellite position, see the globe view (requires WebGL).

§ Visibility from observer

Set your observer location to see the next 7 days of passes ≥ 10°. The values pass through the URL so the page stays shareable.

No JS? Fill the form by hand. The geolocation button needs JavaScript.